Location: Newark
(25.6108°S, 54.5803°W)
Time: 16:19:39
(UTC+00:00)

Tiros 1 despin weight - All Passes

Search period start: 21 October 2020 00:00
Search period end: 31 October 2020 00:00
Orbit: 594 x 641 km, 48.2° (Epoch: 20 October)

Date Brightness Start Highest point End Pass type
(mag) Time Alt. Az. Time Alt. Az. Time Alt. Az.
21 Oct - 01:12:52 10° SSW 01:17:18 40° SE 01:21:39 10° ENE visible
21 Oct - 02:54:57 10° WSW 02:58:40 23° NW 03:02:17 10° N night (unlit)
21 Oct - 16:54:23 10° NW 16:58:59 79° NE 17:03:42 10° SE daylight
21 Oct - 18:37:59 10° WSW 18:40:58 17° SSW 18:43:59 10° S daylight
21 Oct - 23:49:03 10° S 23:51:44 15° SSE 23:54:23 10° ESE visible
22 Oct - 01:29:05 10° SW 01:33:48 88° SE 01:38:24 10° NE visible
22 Oct - 15:30:49 10° N 15:34:10 20° NE 15:37:34 10° E daylight
22 Oct - 17:11:01 10° WNW 17:15:27 46° SW 17:20:00 10° SSE daylight
23 Oct - 00:04:31 10° SSW 00:08:32 27° SE 00:12:29 10° E visible
23 Oct - 01:45:47 10° WSW 01:50:08 39° NW 01:54:24 10° NNE visible
23 Oct - 15:46:00 10° NNW 15:50:24 47° NE 15:54:54 10° ESE daylight
23 Oct - 17:28:23 10° W 17:32:06 23° SW 17:35:52 10° SSE daylight
23 Oct - 22:41:39 10° SSE 22:42:46 11° SSE 22:43:53 10° SE visible
24 Oct - 00:20:30 10° SW 00:25:08 55° SE 00:29:41 10° ENE visible
24 Oct - 02:03:25 10° W 02:06:21 17° NW 02:09:15 10° NNW night (unlit)
24 Oct - 14:24:03 10° NNE 14:25:42 12° NE 14:27:20 10° ENE daylight
24 Oct - 16:02:11 10° NW 16:06:46 74° SW 16:11:28 10° SE daylight
24 Oct - 17:46:46 10° WSW 17:48:57 13° SSW 17:51:09 10° S daylight
24 Oct - 22:56:20 10° SSW 22:59:41 19° SSE 23:03:01 10° ESE visible
25 Oct - 00:36:53 10° SW 00:41:34 65° NW 00:46:09 10° NE visible
25 Oct - 14:37:57 10° N 14:41:51 28° NE 14:45:50 10° ESE daylight
25 Oct - 16:19:07 10° WNW 16:23:19 34° SW 16:27:35 10° SSE daylight
25 Oct - 23:12:03 10° SSW 23:16:25 35° SE 23:20:41 10° ENE visible
26 Oct - 00:53:52 10° WSW 00:57:51 27° NW 01:01:45 10° N visible
26 Oct - 14:53:37 10° NW 14:58:08 68° NE 15:02:47 10° SE daylight
26 Oct - 16:36:51 10° WSW 16:40:02 18° SSW 16:43:16 10° SSE daylight
26 Oct - 21:48:24 10° S 21:50:47 14° SSE 21:53:08 10° ESE daylight
26 Oct - 23:28:12 10° SW 23:32:56 77° SE 23:37:35 10° NE visible
27 Oct - 01:12:31 10° WNW 01:14:00 11° NW 01:15:30 10° NW visible
27 Oct - 13:30:25 10° NNE 13:33:22 17° NE 13:36:21 10° E daylight
27 Oct - 15:10:07 10° WNW 15:14:34 52° SW 15:19:09 10° SE daylight
27 Oct - 16:56:21 10° SSW 16:56:58 10° SSW 16:57:35 10° SSW daylight
27 Oct - 22:03:45 10° SSW 22:07:37 24° SE 22:11:26 10° E daylight
27 Oct - 23:44:47 10° WSW 23:49:18 45° NW 23:53:43 10° NNE visible
28 Oct - 13:45:20 10° NNW 13:49:35 40° NE 13:53:54 10° ESE daylight
28 Oct - 15:27:21 10° W 15:31:11 25° SW 15:35:05 10° SSE daylight
28 Oct - 22:19:39 10° SW 22:24:14 48° SE 22:28:46 10° ENE visible
29 Oct - 00:02:10 10° W 00:05:32 19° NW 00:08:51 10° N visible
29 Oct - 14:01:22 10° NW 14:05:55 85° SW 14:10:34 10° SE daylight
29 Oct - 15:45:32 10° WSW 15:48:00 14° SSW 15:50:30 10° S daylight
29 Oct - 20:55:37 10° S 20:58:44 17° SSE 21:01:50 10° ESE daylight
29 Oct - 22:35:58 10° SW 22:40:42 76° NW 22:45:21 10° NE visible
30 Oct - 12:37:25 10° N 12:41:03 24° NE 12:44:45 10° ESE daylight
30 Oct - 14:18:10 10° WNW 14:22:25 38° SW 14:26:45 10° SSE daylight
30 Oct - 21:11:15 10° SSW 21:15:29 31° SE 21:19:41 10° E daylight
30 Oct - 22:52:48 10° WSW 22:57:00 32° NW 23:01:08 10° NNE visible
